Vorticity
16 16 16 16 16 16 16 15 15 15 15 14 14 13 13 13 13 13 14 14 15 15 15 17 17 18 19 20 20 20 20 20 20 20 20 20 21 21 22 22 22 21 21 20 19 17 16 15 14 14 14 14 15 15 15 15 14 13 12 11 10 10 13 19 23 24 22 20 17
16 16 16 16 16 16 16 16 15 15 15 15 14 13 13 13 13 12 13 14 14 15 16 18 19 20 21 21 21 21 21 21 21 21 20 20 20 20 21 21 21 22 22 22 21 20 18 16 15 15 15 15 15 16 16 15 14 13 12 11 10 12 17 23 22 21 18 16 15
16 17 17 17 17 17 17 16 15 15 15 14 13 13 12 12 12 12 12 13 14 17 19 21 21 22 22 21 21 20 20 19 19 18 18 18 17 17 18 19 20 22 23 24 23 22 20 19 17 16 15 16 17 16 16 15 15 14 12 9 10 15 20 21 19 17 17 17 18
17 17 17 18 18 17 17 15 15 14 14 13 12 12 11 11 11 12 12 14 17 21 23 23 22 22 21 20 18 16 15 14 14 14 15 15 15 16 17 18 20 22 24 25 25 24 23 21 19 17 17 17 17 17 16 16 15 14 11 8 13 17 19 16 16 17 20 22 23
17 17 18 18 17 17 16 15 15 14 13 12 11 11 11 12 12 13 15 19 23 24 24 24 22 20 18 15 14 12 12 12 12 13 13 14 15 16 17 18 21 22 24 26 26 26 25 23 21 19 18 18 18 17 17 19 16 13 10 9 14 15 14 13 17 20 22 24 22
16 17 18 19 18 17 17 17 16 14 13 12 12 12 12 13 15 17 20 24 25 25 24 23 19 15 13 11 11 12 13 14 15 16 16 16 17 17 17 19 21 23 24 26 26 27 26 24 22 21 20 20 19 20 21 21 17 11 8 9 11 11 11 15 20 21 21 19 12
15 16 17 18 19 18 18 17 16 15 14 13 13 13 14 15 18 21 24 25 25 24 22 17 13 11 10 11 14 16 19 20 21 22 21 20 19 19 18 19 20 22 24 25 26 27 27 26 24 23 22 23 24 25 24 20 14 9 6 8 8 9 12 17 19 18 15 9 2
15 16 18 18 19 19 18 18 16 15 15 15 15 15 16 18 21 24 25 26 25 21 15 11 9 10 12 15 19 22 25 27 27 27 25 23 21 20 19 19 20 22 24 26 27 28 28 28 26 26 27 28 26 22 17 15 11 7 5 6 7 9 12 15 15 13 7 -2 -1
13 15 17 18 19 19 19 18 17 16 16 16 16 17 18 21 24 26 26 26 21 15 10 8 9 12 15 20 24 26 28 29 28 27 26 24 22 21 21 21 23 26 28 30 31 31 31 30 30 30 28 23 16 12 11 13 10 7 5 4 6 10 12 11 9 4 -1 -3 3
12 13 15 17 18 19 19 18 18 17 17 17 17 19 21 23 26 27 26 21 14 10 8 9 11 14 18 21 24 26 26 26 26 25 24 24 24 25 26 28 31 33 35 36 36 35 34 34 32 25 15 4 6 10 15 17 14 11 8 5 8 12 12 6 3 1 1 3 3
11 13 15 17 18 18 19 19 18 18 18 18 19 20 23 26 27 26 22 15 10 8 8 10 13 15 18 20 22 23 23 24 24 25 26 28 30 32 34 36 37 38 38 37 36 36 35 33 22 9 -1 -1 8 15 18 20 16 12 9 9 13 13 10 4 3 3 3 1 0
10 12 14 16 17 18 19 19 19 19 19 19 20 22 24 27 26 22 16 10 8 8 9 11 14 16 18 20 21 22 23 24 26 28 30 33 34 35 34 32 30 28 27 28 31 31 28 21 7 -1 -2 5 12 16 18 19 14 11 11 14 15 12 8 5 4 3 1 0 1
9 11 13 15 17 19 19 20 20 19 19 20 21 23 25 26 23 17 12 8 7 8 10 12 16 18 20 22 23 24 25 26 29 31 31 30 27 23 19 14 9 8 10 18 24 24 19 11 4 2 2 3 8 12 15 14 11 12 15 16 11 8 7 5 4 3 3 4 6
9 11 13 15 17 19 20 20 20 20 20 21 23 24 24 24 20 14 9 7 7 9 11 14 19 21 22 23 23 23 24 26 27 26 23 16 11 8 5 3 -0 3 10 22 24 20 14 9 7 5 4 3 7 9 10 8 10 13 15 12 8 6 5 3 4 6 8 9 8
9 10 12 14 17 19 20 21 21 21 22 23 23 23 23 22 17 12 8 6 8 10 13 17 22 22 21 21 21 21 22 21 18 12 4 -5 1 11 20 21 19 22 28 32 24 16 10 8 8 11 13 14 10 6 4 7 11 12 11 9 8 6 5 4 6 7 6 4 2
8 10 12 14 17 19 20 21 21 22 23 24 23 22 22 20 15 10 7 6 9 11 15 18 22 22 20 18 17 17 16 11 5 -3 -10 -11 15 40 55 51 43 41 39 32 21 14 11 11 15 22 26 22 5 -0 5 17 16 14 12 12 10 8 7 6 5 2 0 -1 -1
8 9 11 14 16 19 21 22 22 24 24 24 23 22 21 18 13 9 6 6 10 12 15 17 19 19 17 14 13 12 9 5 -0 -5 -3 10 44 65 68 53 46 42 38 33 26 21 19 20 27 33 31 14 -2 6 21 30 25 21 17 13 11 9 7 4 2 1 1 2 4
8 9 11 13 16 18 20 22 24 25 25 24 22 21 19 16 12 8 6 6 9 12 14 16 17 16 14 10 10 8 6 8 5 6 14 32 53 53 42 30 30 30 32 33 32 29 27 27 32 34 27 8 4 13 22 16 14 10 6 1 1 1 1 1 3 6 8 10 11
8 9 10 13 15 18 20 22 24 26 26 25 21 19 17 15 11 8 6 6 8 10 13 17 20 17 11 7 9 6 3 7 10 15 22 34 32 21 11 12 16 20 23 26 27 27 27 27 30 29 23 10 7 4 -1 -9 -9 -9 -9 -9 -5 -1 2 6 10 14 17 18 18
8 9 10 12 14 17 20 22 25 26 26 25 21 18 15 14 11 9 7 5 6 8 13 19 23 18 11 5 6 3 1 3 8 13 17 23 13 5 2 7 11 14 17 18 16 14 14 18 24 26 24 19 12 5 -1 -5 -6 -6 -3 0 4 7 11 15 17 19 20 20 20
8 9 10 11 13 16 19 22 24 26 27 26 21 17 14 12 11 9 7 5 5 8 13 20 23 19 11 3 3 2 0 1 3 5 9 14 12 10 8 8 8 11 14 16 12 7 3 6 12 18 22 25 23 21 18 16 14 13 14 15 16 17 18 19 18 17 17 15 16
8 8 9 10 12 14 17 20 23 26 27 27 22 17 13 11 10 9 7 5 6 8 12 19 23 18 9 2 2 1 -1 -5 -4 -2 2 6 10 13 15 16 12 12 14 18 16 11 5 3 4 8 14 22 25 25 24 24 22 21 19 17 17 16 16 15 13 11 9 7 10
8 8 9 9 11 13 15 19 22 25 27 28 24 19 13 10 10 9 7 6 8 9 11 17 21 17 9 2 2 1 -3 -11 -11 -8 -5 -2 3 9 16 22 21 20 19 21 22 20 16 11 7 6 9 15 18 17 14 12 13 12 10 9 8 9 10 10 9 6 3 2 5
8 8 8 9 10 11 14 17 21 24 27 28 25 20 15 10 9 8 8 7 9 10 12 15 18 16 10 6 5 -0 -6 -8 -11 -12 -11 -8 -5 2 10 19 24 26 26 25 26 28 29 28 24 20 18 21 19 11 2 -4 -0 3 4 4 1 3 7 10 7 4 2 1 1
8 8 8 8 9 10 12 16 20 23 26 27 25 22 17 12 9 8 7 8 10 13 14 14 15 14 12 7 8 2 -4 -4 -9 -13 -15 -13 -10 -5 3 13 19 25 28 28 25 28 32 34 35 35 35 34 27 14 -1 -13 -7 0 6 6 4 6 9 9 5 2 1 1 -3
8 8 8 8 8 10 12 15 18 21 23 25 25 23 19 14 10 7 6 7 11 14 16 16 12 12 11 7 11 6 -2 -5 -8 -11 -14 -14 -13 -10 -4 6 14 19 23 28 24 22 23 24 23 23 24 24 18 8 -3 -13 -6 2 7 5 9 10 8 4 1 -0 1 2 -2
9 9 8 8 8 10 11 14 17 19 22 24 25 24 21 16 12 8 6 6 11 15 18 17 11 10 11 9 13 8 1 -1 -6 -9 -10 -12 -13 -13 -9 -1 10 11 13 22 21 20 18 17 15 13 11 10 6 2 -1 -4 1 7 10 8 9 9 7 3 1 1 1 2 1
9 9 8 8 9 9 10 12 15 18 21 24 25 24 21 17 14 11 8 6 10 16 20 19 12 9 10 12 12 9 7 9 3 -0 -2 -5 -8 -11 -11 -7 6 7 5 13 13 15 17 18 17 15 11 6 3 3 4 5 8 11 13 13 12 11 9 6 4 3 3 3 1
8 8 8 8 8 9 10 12 15 18 20 23 24 24 22 20 17 14 11 8 9 14 19 22 16 12 11 14 13 13 12 11 11 9 8 8 5 -1 -6 -10 1 3 3 8 5 5 7 12 15 17 16 13 10 8 8 7 8 9 9 10 10 9 8 6 5 4 3 3 0
8 8 8 8 8 9 10 12 14 16 18 21 23 24 24 22 20 17 14 12 11 13 16 20 19 16 14 13 13 13 12 11 13 14 15 16 16 13 5 -7 -3 -1 1 7 4 2 0 -0 3 8 12 15 16 15 13 10 9 7 6 4 4 4 4 3 2 1 -1 -2 -3
8 8 8 8 8 9 10 11 12 15 17 19 22 23 24 23 22 19 17 14 14 14 16 19 19 17 14 12 13 13 12 12 13 15 16 16 18 19 15 4 -6 -8 -3 7 5 3 2 -0 -1 -0 2 5 9 11 12 12 10 8 6 5 3 2 1 0 -1 -3 -4 -6 -6
8 8 8 8 9 9 9 10 11 13 16 18 20 22 24 24 23 21 18 16 15 16 18 21 21 19 15 12 12 13 13 12 13 14 14 13 14 16 18 17 1 -5 -2 6 6 6 5 3 2 2 2 2 2 4 5 6 7 7 7 7 7 6 4 2 0 -1 -3 -4 -4
8 8 8 8 8 9 9 9 11 12 15 17 19 21 23 24 24 22 21 18 17 17 19 21 21 20 17 13 13 13 13 13 12 12 11 10 9 10 14 21 13 7 3 1 5 9 11 9 6 5 5 5 5 4 4 4 4 4 6 7 9 10 10 9 8 6 5 3 3
8 8 8 8 8 8 9 9 10 11 13 15 17 20 22 23 24 24 23 21 19 19 19 20 20 20 18 15 14 13 13 13 11 9 9 8 6 6 7 13 15 9 0 -7 2 9 13 14 11 9 8 8 8 8 7 7 7 7 7 8 9 12 13 15 14 14 13 12 10
9 8 8 8 8 8 9 9 9 10 11 13 15 18 20 22 24 24 24 23 20 19 19 20 20 19 18 16 15 14 14 13 10 8 7 7 7 6 5 5 10 8 3 -3 1 5 9 13 13 13 12 12 12 13 13 13 13 13 12 12 13 14 15 17 18 18 19 18 15
9 9 8 8 8 8 8 8 9 9 10 12 13 15 18 20 23 24 25 24 22 20 20 20 19 19 18 17 16 15 15 13 10 8 7 6 7 8 7 5 7 8 7 2 2 3 5 9 10 12 13 13 14 15 16 17 17 17 17 17 17 18 18 18 19 19 20 20 19
9 9 9 8 8 8 8 8 9 9 10 11 12 13 15 17 20 23 25 25 24 22 20 19 19 19 18 17 17 16 15 14 11 8 6 5 7 8 8 7 8 10 12 12 6 2 3 7 9 10 11 12 14 15 16 16 17 17 18 19 20 20 20 20 19 19 18 18 18
8 9 9 9 8 8 8 8 8 9 10 10 11 12 13 15 18 20 23 25 25 23 21 19 19 19 18 17 17 16 15 14 11 8 6 5 6 8 9 9 9 10 12 15 12 8 5 6 10 11 11 12 14 15 15 15 15 16 16 16 17 18 19 20 20 20 19 18 17
8 9 9 9 9 8 8 8 8 8 9 9 11 11 12 14 16 18 21 24 26 25 23 20 19 18 17 16 15 14 13 11 9 7 5 5 6 8 9 10 11 11 12 14 16 14 10 9 11 12 12 12 13 14 14 14 14 14 13 13 12 13 15 17 18 19 19 19 18
8 9 9 9 9 9 8 8 8 8 8 9 10 11 12 13 15 17 19 22 25 26 26 24 20 17 16 14 13 11 9 7 6 5 4 4 6 8 10 11 12 13 13 14 16 17 15 12 12 13 14 14 12 12 12 13 12 12 11 10 9 9 10 12 14 16 18 18 19
8 8 9 9 9 9 9 9 8 8 8 8 9 10 11 12 13 15 17 20 24 27 28 28 24 20 16 14 11 9 7 5 3 3 3 3 5 7 9 11 12 13 14 15 16 16 16 15 14 15 16 17 15 12 10 10 11 11 10 9 9 8 9 10 12 14 16 18 19
Height
3021 3018 3014 3010 3006 3003 2999 2996 2993 2989 2986 2983 2980 2977 2974 2971 2968 2965 2962 2959 2956 2953 2950 2948 2945 2942 2940 2937 2935 2933 2930 2928 2926 2924 2922 2920 2919 2917 2915 2914 2912 2911 2910 2909 2909 2908 2908 2907 2907 2907 2907 2907 2907 2907 2907 2907 2907 2906 2906 2906 2906 2906 2907 2907 2906 2906 2905 2905 2904
3020 3016 3012 3009 3005 3001 2998 2994 2991 2988 2984 2981 2978 2975 2972 2969 2966 2963 2960 2957 2954 2951 2948 2945 2942 2940 2937 2935 2932 2930 2928 2925 2923 2921 2919 2917 2915 2914 2912 2910 2909 2908 2907 2906 2905 2905 2904 2904 2904 2904 2904 2905 2905 2905 2905 2905 2904 2904 2904 2904 2904 2905 2905 2905 2905 2904 2904 2904 2903
3019 3015 3011 3007 3003 2999 2996 2993 2989 2986 2983 2980 2977 2974 2970 2967 2964 2961 2958 2955 2952 2949 2946 2943 2940 2938 2935 2933 2930 2928 2925 2923 2921 2919 2917 2915 2913 2911 2909 2908 2907 2906 2905 2904 2903 2902 2902 2902 2902 2902 2902 2902 2903 2903 2903 2903 2902 2902 2902 2903 2904 2904 2904 2904 2904 2903 2903 2903 2902
3018 3014 3009 3005 3001 2998 2994 2991 2988 2985 2982 2979 2975 2972 2969 2966 2963 2960 2956 2953 2950 2947 2944 2941 2938 2936 2933 2931 2928 2926 2923 2921 2919 2917 2914 2913 2911 2909 2908 2906 2904 2904 2902 2901 2901 2900 2899 2899 2899 2899 2900 2900 2900 2901 2901 2901 2900 2900 2901 2902 2903 2903 2903 2903 2902 2902 2902 2902 2902
3016 3012 3008 3004 3000 2997 2993 2990 2987 2984 2980 2977 2974 2971 2968 2964 2961 2958 2954 2951 2948 2945 2943 2940 2937 2934 2932 2929 2927 2924 2921 2919 2917 2914 2912 2910 2909 2907 2905 2904 2903 2901 2900 2899 2899 2898 2897 2897 2897 2897 2898 2898 2899 2899 2899 2899 2899 2899 2900 2901 2902 2902 2902 2902 2901 2901 2901 2901 2901
3014 3010 3006 3003 2999 2996 2993 2989 2986 2983 2980 2976 2973 2970 2967 2963 2960 2956 2953 2950 2947 2944 2941 2939 2936 2933 2930 2928 2925 2922 2919 2917 2915 2912 2910 2908 2906 2905 2904 2902 2901 2899 2898 2897 2896 2896 2895 2895 2895 2896 2896 2897 2897 2897 2898 2897 2897 2898 2899 2901 2901 2901 2901 2901 2901 2901 2901 2901 2901
3014 3010 3006 3002 2999 2995 2992 2989 2985 2982 2979 2975 2972 2969 2965 2962 2958 2955 2952 2949 2946 2943 2940 2937 2934 2932 2929 2926 2923 2920 2918 2915 2913 2910 2908 2906 2904 2903 2901 2900 2899 2898 2896 2895 2894 2894 2894 2894 2894 2894 2895 2895 2896 2896 2896 2896 2896 2898 2899 2900 2900 2900 2900 2901 2901 2901 2901 2901 2901
3013 3010 3006 3002 2999 2995 2991 2988 2984 2981 2977 2974 2971 2967 2964 2960 2957 2954 2950 2947 2944 2942 2939 2936 2933 2930 2927 2924 2921 2919 2916 2913 2910 2908 2906 2904 2903 2901 2899 2898 2897 2896 2894 2894 2893 2892 2892 2892 2893 2894 2894 2894 2895 2895 2895 2895 2896 2897 2899 2899 2899 2900 2900 2900 2900 2900 2900 2900 2901
3013 3009 3006 3002 2998 2994 2991 2987 2983 2980 2976 2973 2969 2966 2962 2959 2955 2952 2949 2946 2944 2941 2938 2935 2932 2929 2926 2923 2920 2917 2914 2911 2909 2907 2905 2903 2901 2899 2898 2897 2895 2894 2893 2892 2891 2891 2891 2892 2892 2893 2894 2894 2894 2895 2895 2895 2896 2897 2898 2899 2899 2899 2900 2900 2900 2900 2900 2901 2901
3013 3009 3005 3001 2997 2993 2989 2986 2982 2979 2975 2972 2968 2965 2961 2958 2955 2951 2949 2946 2943 2940 2938 2934 2932 2929 2925 2922 2919 2916 2913 2910 2908 2906 2904 2902 2900 2899 2897 2895 2894 2893 2892 2891 2891 2891 2891 2891 2892 2893 2893 2894 2894 2894 2894 2895 2896 2897 2898 2898 2899 2899 2899 2899 2899 2900 2900 2901 2900
3013 3009 3004 3000 2996 2992 2989 2985 2981 2978 2974 2971 2967 2964 2960 2957 2954 2951 2948 2945 2943 2940 2937 2934 2931 2928 2924 2921 2918 2915 2913 2910 2908 2906 2904 2902 2900 2898 2897 2895 2894 2893 2892 2892 2891 2891 2891 2891 2892 2893 2893 2894 2894 2894 2894 2896 2897 2897 2897 2898 2899 2899 2899 2899 2899 2900 2900 2900 2899
3012 3008 3004 2999 2995 2991 2988 2984 2980 2977 2973 2970 2966 2963 2959 2956 2953 2951 2948 2945 2943 2940 2938 2934 2931 2928 2924 2921 2919 2916 2913 2911 2909 2906 2904 2902 2900 2899 2897 2896 2895 2894 2893 2893 2892 2892 2892 2892 2892 2893 2893 2894 2894 2894 2895 2896 2896 2897 2897 2898 2898 2898 2899 2899 2900 2900 2899 2899 2899
3011 3007 3003 2999 2995 2991 2987 2983 2980 2976 2973 2969 2965 2962 2959 2956 2953 2950 2948 2946 2943 2940 2937 2934 2931 2929 2925 2923 2920 2917 2914 2912 2910 2908 2905 2904 2902 2900 2899 2898 2896 2895 2895 2894 2894 2893 2893 2893 2893 2893 2893 2893 2894 2895 2895 2896 2896 2897 2897 2898 2898 2898 2899 2899 2899 2899 2899 2899 2899
3011 3007 3003 2998 2994 2990 2986 2983 2979 2975 2972 2969 2965 2962 2959 2955 2953 2950 2948 2946 2943 2940 2938 2935 2932 2929 2927 2924 2921 2919 2916 2914 2911 2909 2907 2905 2904 2902 2901 2899 2898 2897 2895 2894 2894 2893 2893 2892 2892 2892 2893 2893 2894 2895 2896 2896 2897 2897 2897 2898 2898 2899 2899 2899 2898 2898 2899 2899 2899
3010 3006 3002 2998 2994 2989 2986 2982 2978 2975 2971 2968 2965 2961 2959 2956 2953 2951 2949 2946 2944 2941 2939 2936 2933 2931 2928 2926 2923 2920 2918 2915 2913 2911 2909 2908 2906 2904 2903 2901 2898 2896 2895 2893 2892 2892 2891 2891 2892 2892 2893 2894 2895 2895 2896 2897 2897 2897 2898 2898 2898 2899 2899 2898 2898 2898 2898 2898 2898
3010 3006 3002 2997 2993 2989 2985 2982 2978 2974 2971 2968 2964 2961 2959 2956 2954 2951 2949 2946 2944 2942 2939 2937 2934 2932 2930 2927 2925 2922 2920 2918 2916 2914 2911 2909 2907 2905 2903 2900 2898 2895 2894 2893 2892 2891 2891 2891 2892 2893 2894 2894 2895 2896 2896 2897 2897 2898 2898 2899 2899 2898 2898 2898 2899 2898 2898 2897 2897
3010 3006 3002 2997 2993 2989 2985 2982 2978 2974 2971 2968 2964 2962 2959 2956 2954 2952 2949 2947 2945 2943 2940 2938 2936 2934 2931 2929 2927 2924 2922 2920 2917 2915 2912 2910 2908 2906 2902 2899 2898 2896 2894 2894 2893 2892 2892 2892 2893 2893 2894 2895 2895 2896 2897 2898 2898 2898 2898 2899 2899 2898 2899 2899 2899 2898 2898 2897 2897
3010 3006 3002 2997 2993 2989 2985 2982 2978 2974 2971 2968 2965 2962 2959 2957 2954 2952 2950 2948 2946 2944 2941 2939 2937 2935 2933 2931 2929 2926 2924 2922 2919 2916 2914 2912 2910 2907 2904 2901 2900 2899 2897 2896 2895 2894 2894 2894 2894 2894 2895 2896 2897 2898 2899 2899 2899 2899 2899 2899 2899 2899 2899 2899 2899 2899 2898 2898 2898
3010 3006 3002 2998 2994 2989 2985 2982 2978 2974 2971 2968 2965 2962 2960 2957 2955 2953 2951 2949 2947 2945 2943 2940 2939 2937 2935 2933 2930 2929 2926 2923 2920 2918 2915 2914 2912 2909 2906 2904 2903 2902 2900 2899 2898 2897 2896 2896 2896 2896 2897 2898 2899 2899 2899 2899 2899 2899 2899 2899 2899 2899 2899 2899 2899 2899 2899 2898 2898
3010 3006 3002 2998 2994 2989 2985 2982 2978 2974 2971 2968 2965 2963 2960 2958 2956 2954 2951 2949 2947 2945 2944 2942 2940 2938 2936 2934 2932 2930 2928 2925 2922 2920 2918 2917 2914 2912 2910 2908 2906 2905 2904 2902 2901 2900 2899 2899 2899 2899 2899 2899 2899 2899 2899 2899 2899 2899 2899 2899 2899 2899 2899 2899 2899 2899 2899 2899 2898
3010 3006 3002 2998 2994 2990 2986 2982 2978 2975 2971 2969 2966 2964 2961 2959 2956 2954 2952 2950 2948 2946 2944 2943 2941 2939 2937 2935 2933 2931 2929 2927 2924 2922 2920 2919 2917 2914 2912 2911 2909 2908 2906 2905 2904 2903 2902 2901 2901 2900 2900 2900 2900 2900 2899 2899 2900 2900 2900 2900 2900 2900 2900 2899 2899 2899 2899 2899 2899
3010 3006 3003 2998 2994 2990 2986 2982 2979 2975 2972 2969 2966 2964 2962 2959 2957 2955 2953 2950 2949 2947 2945 2944 2942 2939 2938 2936 2934 2933 2931 2929 2927 2924 2923 2921 2919 2917 2914 2913 2911 2910 2909 2908 2907 2905 2904 2903 2902 2902 2902 2901 2901 2900 2900 2900 2900 2900 2900 2900 2900 2900 2900 2900 2900 2900 2900 2899 2899
3010 3007 3003 2999 2995 2991 2987 2983 2979 2976 2973 2969 2967 2964 2962 2960 2958 2955 2953 2951 2949 2948 2946 2944 2942 2940 2939 2937 2935 2934 2932 2930 2929 2926 2924 2923 2921 2919 2916 2914 2912 2911 2910 2910 2909 2908 2906 2905 2904 2903 2902 2902 2902 2902 2901 2901 2901 2901 2901 2901 2901 2901 2901 2901 2901 2901 2900 2900 2899
3011 3007 3003 2999 2995 2991 2987 2983 2979 2976 2973 2970 2967 2965 2963 2960 2958 2956 2954 2952 2950 2948 2946 2944 2943 2941 2939 2938 2936 2934 2933 2931 2930 2928 2926 2924 2923 2920 2918 2915 2914 2912 2911 2911 2910 2909 2908 2907 2906 2905 2904 2904 2904 2903 2903 2903 2902 2902 2902 2901 2901 2901 2901 2901 2901 2901 2900 2900 2899
3011 3008 3004 3000 2996 2992 2988 2984 2980 2977 2974 2971 2968 2965 2963 2961 2959 2956 2954 2952 2950 2949 2947 2945 2943 2942 2940 2938 2937 2935 2934 2932 2931 2929 2927 2926 2924 2922 2919 2917 2915 2914 2913 2913 2912 2912 2911 2909 2908 2908 2907 2906 2905 2905 2904 2904 2903 2903 2902 2902 2902 2902 2901 2901 2901 2901 2900 2899 2899
3011 3008 3004 3000 2996 2992 2988 2984 2981 2977 2974 2971 2968 2966 2963 2961 2959 2957 2955 2953 2950 2949 2947 2945 2944 2942 2940 2939 2937 2936 2934 2933 2931 2930 2929 2927 2925 2924 2922 2919 2917 2916 2916 2915 2914 2914 2913 2912 2910 2909 2908 2907 2906 2906 2905 2904 2904 2903 2903 2903 2903 2902 2902 2901 2901 2900 2900 2899 2899
3012 3008 3004 3001 2997 2993 2989 2985 2982 2978 2974 2972 2969 2966 2964 2961 2959 2957 2955 2953 2951 2949 2947 2946 2944 2942 2941 2939 2938 2936 2935 2934 2932 2931 2929 2929 2927 2925 2924 2922 2919 2919 2918 2917 2916 2915 2914 2913 2912 2911 2909 2909 2908 2907 2906 2905 2905 2904 2904 2904 2903 2903 2902 2901 2901 2900 2899 2899 2898
3012 3009 3005 3001 2998 2994 2990 2986 2982 2979 2975 2972 2969 2966 2964 2962 2960 2958 2956 2954 2952 2949 2948 2946 2944 2943 2941 2940 2938 2937 2935 2934 2933 2931 2930 2929 2928 2927 2926 2924 2922 2920 2920 2919 2918 2917 2916 2915 2914 2913 2911 2910 2909 2909 2908 2907 2906 2905 2905 2904 2904 2903 2902 2901 2901 2900 2899 2898 2897
3012 3009 3005 3002 2998 2994 2991 2987 2983 2979 2976 2973 2970 2967 2964 2963 2960 2959 2956 2954 2952 2950 2948 2946 2944 2943 2942 2940 2939 2937 2936 2934 2933 2932 2931 2930 2929 2928 2927 2926 2924 2923 2921 2920 2919 2918 2917 2916 2915 2914 2913 2912 2911 2909 2909 2908 2907 2906 2906 2905 2904 2903 2903 2902 2901 2900 2899 2898 2897
3013 3009 3006 3002 2999 2995 2991 2988 2984 2980 2977 2974 2971 2968 2965 2963 2961 2959 2957 2954 2952 2950 2948 2946 2945 2944 2942 2940 2939 2938 2936 2935 2934 2932 2931 2930 2929 2929 2928 2927 2926 2925 2923 2920 2919 2918 2917 2916 2915 2915 2914 2913 2912 2911 2910 2909 2908 2907 2906 2905 2904 2904 2903 2902 2901 2900 2899 2898 2897
3013 3009 3006 3003 2999 2996 2992 2989 2985 2981 2978 2974 2971 2969 2966 2964 2961 2959 2957 2955 2953 2950 2949 2946 2945 2944 2942 2941 2939 2938 2937 2935 2934 2933 2931 2930 2929 2929 2928 2928 2928 2927 2925 2921 2919 2919 2917 2916 2915 2914 2914 2913 2913 2911 2910 2909 2909 2907 2906 2905 2904 2904 2903 2901 2900 2899 2898 2897 2896
3013 3010 3007 3003 3000 2997 2993 2989 2986 2982 2979 2975 2973 2970 2967 2964 2962 2960 2958 2955 2953 2951 2949 2947 2945 2944 2942 2941 2940 2938 2937 2936 2934 2933 2932 2931 2930 2929 2929 2928 2928 2929 2927 2922 2920 2919 2918 2916 2915 2914 2913 2912 2912 2911 2910 2909 2908 2907 2906 2905 2904 2903 2902 2901 2900 2899 2898 2896 2895
3014 3010 3007 3004 3001 2997 2994 2991 2987 2984 2980 2977 2974 2971 2968 2965 2963 2960 2958 2956 2953 2951 2949 2947 2945 2943 2942 2941 2940 2939 2937 2936 2935 2934 2932 2931 2930 2930 2929 2928 2927 2928 2928 2924 2921 2919 2919 2917 2915 2914 2913 2912 2911 2910 2909 2908 2907 2906 2905 2904 2903 2902 2901 2899 2898 2897 2896 2895 2894
3014 3011 3008 3004 3001 2998 2995 2992 2988 2985 2981 2978 2975 2972 2969 2966 2963 2961 2958 2956 2954 2952 2949 2947 2945 2944 2942 2941 2940 2939 2938 2936 2935 2934 2933 2932 2931 2930 2929 2928 2927 2927 2928 2927 2922 2919 2919 2918 2916 2915 2913 2912 2911 2909 2908 2907 2906 2905 2904 2903 2901 2900 2899 2898 2896 2895 2894 2893 2892
3014 3011 3008 3005 3002 2999 2996 2993 2989 2986 2983 2979 2976 2973 2969 2967 2964 2961 2959 2956 2954 2952 2950 2948 2946 2944 2943 2942 2940 2939 2938 2937 2935 2934 2933 2932 2931 2930 2929 2928 2927 2927 2927 2929 2924 2920 2919 2918 2916 2915 2914 2912 2911 2909 2908 2907 2906 2904 2903 2901 2900 2899 2897 2896 2894 2893 2892 2891 2890
3014 3012 3009 3006 3003 2999 2997 2994 2990 2987 2984 2980 2977 2974 2970 2967 2964 2962 2959 2957 2955 2953 2951 2949 2947 2945 2943 2942 2941 2939 2938 2937 2936 2935 2934 2933 2932 2930 2929 2928 2927 2926 2926 2927 2925 2922 2919 2917 2916 2915 2914 2912 2911 2909 2908 2907 2905 2904 2902 2900 2899 2898 2896 2894 2893 2892 2890 2889 2888
3015 3012 3009 3006 3003 3000 2997 2994 2991 2988 2985 2982 2978 2975 2971 2968 2965 2962 2960 2957 2955 2954 2951 2949 2947 2945 2944 2942 2941 2940 2939 2937 2936 2935 2934 2933 2932 2930 2929 2928 2927 2926 2925 2925 2925 2924 2920 2916 2916 2915 2914 2912 2910 2909 2908 2906 2904 2903 2901 2900 2898 2897 2895 2894 2892 2890 2889 2888 2887
3015 3013 3009 3007 3004 3001 2998 2995 2992 2989 2986 2983 2979 2976 2973 2969 2966 2963 2960 2958 2956 2954 2952 2950 2948 2946 2944 2943 2942 2940 2939 2938 2937 2936 2935 2934 2932 2931 2929 2929 2927 2926 2925 2924 2924 2924 2921 2917 2915 2914 2914 2912 2910 2909 2907 2905 2904 2902 2901 2899 2898 2896 2894 2893 2891 2889 2888 2886 2885
3016 3013 3010 3007 3004 3001 2998 2995 2992 2989 2986 2984 2980 2977 2974 2970 2967 2964 2961 2959 2956 2954 2952 2950 2949 2947 2945 2944 2942 2941 2940 2939 2937 2936 2935 2934 2933 2931 2930 2929 2927 2926 2925 2924 2923 2922 2921 2918 2916 2914 2913 2912 2910 2908 2907 2905 2903 2902 2900 2899 2897 2896 2894 2892 2890 2889 2887 2885 2884
3017 3014 3011 3008 3005 3002 2999 2996 2993 2990 2987 2984 2981 2978 2975 2972 2969 2966 2963 2960 2958 2955 2953 2951 2949 2947 2946 2944 2943 2942 2941 2939 2938 2937 2935 2934 2933 2932 2930 2929 2928 2926 2925 2923 2922 2921 2919 2919 2917 2914 2912 2911 2910 2908 2906 2904 2903 2901 2899 2898 2896 2895 2894 2892 2890 2888 2886 2884 2883
3017 3014 3011 3009 3005 3003 2999 2997 2994 2991 2988 2985 2982 2979 2976 2973 2970 2967 2964 2961 2959 2957 2954 2952 2950 2948 2946 2945 2944 2942 2941 2940 2939 2937 2936 2934 2933 2932 2930 2929 2928 2926 2924 2923 2922 2920 2919 2918 2917 2914 2912 2910 2909 2908 2906 2904 2902 2901 2899 2897 2896 2894 2893 2891 2889 2888 2886 2884 2882